Weather History for Alamogordo, NM

Change the Weather History Date:

Friday, June 1, 2012

  Actual Average Record
Temperature  
Mean Temperature 75 °F -  
Max Temperature 93 °F 90 °F 100 °F (1997)
Min Temperature 57 °F 57 °F 42 °F (1964)
Cooling Degree Days 10    
Growing Degree Days 25 (Base 50)    
Moisture  
Dew Point 44 °F    
Average Humidity 34    
Maximum Humidity 63    
Minimum Humidity 12    
Precipitation  
Precipitation 0.00 in - - ()
Sea Level Pressure  
Sea Level Pressure 29.98 in    
Wind  
Wind Speed 7 mph (South)    
Max Wind Speed 15 mph    
Max Gust Speed 23 mph    
Visibility 10 miles    
Events      
Averages and records for this station are not official NWS values.
T = Trace of Precipitation, MM = Missing Value Source: NWS Daily Summary

Daily Weather History Graph

Daily Weather History Graph

Search for Another Location

Airport:

Trip Planner

Search our weather history database for the weather conditions in past years. The results will help you decide how hot, cold, wet, or windy it might be!

Date:

Astronomy

Jun. 01, 2012 Rise Set
Actual Time 5:56 AM MDT 8:07 PM MDT
Civil Twilight 5:28 AM MDT 8:35 PM MDT
Nautical Twilight 4:53 AM MDT 9:10 PM MDT
Astronomical Twilight 4:16 AM MDT 9:47 PM MDT
Moon 5:18 PM MDT (6/1) 3:25 AM MDT (6/1)
Length of Visible Light 15h 07m
Length of Day
14h 11m
Waxing Gibbous, 89% of the Moon is Illuminated
Jun 1
Waxing Gibbous
Jun 4
Full
Jun 11
Last Quarter
Jun 19
New
Jun 26
First Quarter

Hourly Weather History & Observations

Time (MDT) Temp. Heat Index Dew Point Humidity Pressure Visibility Wind Dir Wind Speed Gust Speed Precip Events Conditions
12:15 AM 71.6 °F - 46.4 °F 41% 29.97 in 10.0 mi North 3.5 mph - N/A   Clear
12:35 AM 71.6 °F - 46.4 °F 41% 29.98 in 10.0 mi North 5.8 mph - N/A   Clear
12:55 AM 75.2 °F - 48.2 °F 38% 29.98 in 10.0 mi NE 5.8 mph - N/A   Clear
1:15 AM 73.4 °F - 46.4 °F 38% 29.98 in 10.0 mi NE 13.8 mph - N/A   Clear
1:35 AM 71.6 °F - 46.4 °F 41% 29.98 in 10.0 mi NNE 10.4 mph 16.1 mph N/A   Clear
1:55 AM 69.8 °F - 44.6 °F 40% 29.98 in 10.0 mi North 5.8 mph - N/A   Clear
2:15 AM 68.0 °F - 46.4 °F 46% 29.98 in 10.0 mi NW 4.6 mph - N/A   Clear
2:35 AM 68.0 °F - 44.6 °F 43% 29.98 in 10.0 mi NNW 6.9 mph - N/A   Clear
2:55 AM 66.2 °F - 46.4 °F 49% 29.98 in 10.0 mi North 6.9 mph - N/A   Clear
3:15 AM 66.2 °F - 46.4 °F 49% 29.99 in 10.0 mi Calm Calm - N/A   Clear
3:35 AM 64.4 °F - 46.4 °F 52% 29.99 in 10.0 mi NNE 6.9 mph - N/A   Clear
3:55 AM 66.2 °F - 46.4 °F 49% 30.00 in 10.0 mi North 5.8 mph - N/A   Clear
4:15 AM 66.2 °F - 48.2 °F 52% 29.99 in 10.0 mi North 6.9 mph - N/A   Clear
4:35 AM 66.2 °F - 48.2 °F 52% 29.99 in 10.0 mi North 6.9 mph - N/A   Clear
4:55 AM 68.0 °F - 48.2 °F 49% 29.99 in 10.0 mi North 5.8 mph - N/A   Clear
5:15 AM 64.4 °F - 48.2 °F 56% 30.00 in 10.0 mi Calm Calm - N/A   Clear
5:35 AM 59.0 °F - 46.4 °F 63% 30.01 in 10.0 mi SSE 3.5 mph - N/A   Clear
5:55 AM 57.2 °F - 44.6 °F 63% 30.01 in 10.0 mi Calm Calm - N/A   Clear
6:15 AM 57.2 °F - 44.6 °F 63% 30.02 in 10.0 mi Calm Calm - N/A   Clear
6:35 AM 57.2 °F - 44.6 °F 63% 30.03 in 10.0 mi Calm Calm - N/A   Clear
6:55 AM 59.0 °F - 46.4 °F 63% 30.04 in 10.0 mi North 4.6 mph - N/A   Clear
7:15 AM 64.4 °F - 48.2 °F 56% 30.04 in 10.0 mi NNE 5.8 mph - N/A   Clear
7:35 AM 68.0 °F - 50.0 °F 52% 30.05 in 10.0 mi NNE 3.5 mph - N/A   Clear
7:55 AM 71.6 °F - 51.8 °F 50% 30.05 in 10.0 mi NW 4.6 mph - N/A   Clear
8:15 AM 71.6 °F - 55.4 °F 57% 30.06 in 10.0 mi NW 6.9 mph - N/A   Clear
8:35 AM 71.6 °F - 53.6 °F 53% 30.06 in 10.0 mi NW 6.9 mph - N/A   Clear
8:55 AM 73.4 °F - 53.6 °F 50% 30.06 in 10.0 mi NW 5.8 mph - N/A   Clear
9:15 AM 75.2 °F - 53.6 °F 47% 30.06 in 10.0 mi WNW 5.8 mph - N/A   Clear
9:35 AM 75.2 °F - 53.6 °F 47% 30.06 in 10.0 mi NNW 3.5 mph - N/A   Clear
9:55 AM 77.0 °F - 51.8 °F 41% 30.06 in 10.0 mi South 3.5 mph - N/A   Clear
10:15 AM 80.6 °F - 51.8 °F 37% 30.06 in 10.0 mi ESE 9.2 mph - N/A   Clear
10:35 AM 80.6 °F 80.3 °F 53.6 °F 39% 30.05 in 10.0 mi East 4.6 mph - N/A   Clear
10:55 AM 82.4 °F 81.4 °F 53.6 °F 37% 30.05 in 10.0 mi SSW 11.5 mph 20.7 mph N/A   Clear
11:15 AM 84.2 °F - 51.8 °F 33% 30.04 in 10.0 mi South 12.7 mph 18.4 mph N/A   Clear
11:35 AM 84.2 °F - 50.0 °F 30% 30.04 in 10.0 mi South 9.2 mph 18.4 mph N/A   Clear
11:55 AM 86.0 °F - 50.0 °F 29% 30.03 in 10.0 mi SSW 8.1 mph 21.9 mph N/A   Clear
12:15 PM 84.2 °F - 50.0 °F 30% 30.02 in 10.0 mi South 12.7 mph 19.6 mph N/A   Clear
12:35 PM 86.0 °F - 50.0 °F 29% 30.01 in 10.0 mi South 15.0 mph 20.7 mph N/A   Clear
12:55 PM 87.8 °F - 50.0 °F 27% 30.01 in 10.0 mi South 9.2 mph 23.0 mph N/A   Clear
1:15 PM 89.6 °F - 46.4 °F 22% 30.00 in 10.0 mi SSW 10.4 mph 18.4 mph N/A   Clear
1:35 PM 89.6 °F - 44.6 °F 21% 30.00 in 10.0 mi SSW 4.6 mph - N/A   Clear
1:55 PM 91.4 °F - 44.6 °F 20% 29.99 in 10.0 mi SSW 11.5 mph - N/A   Clear
2:15 PM 91.4 °F - 44.6 °F 20% 29.98 in 10.0 mi SSW 15.0 mph 23.0 mph N/A   Clear
2:35 PM 91.4 °F - 42.8 °F 18% 29.98 in 10.0 mi SE 5.8 mph 17.3 mph N/A   Clear
2:55 PM 91.4 °F - 41.0 °F 17% 29.97 in 10.0 mi South 5.8 mph 16.1 mph N/A   Clear
3:15 PM 91.4 °F - 41.0 °F 17% 29.96 in 10.0 mi WSW 10.4 mph 17.3 mph N/A   Clear
3:35 PM 91.4 °F - 41.0 °F 17% 29.95 in 10.0 mi SW 11.5 mph 16.1 mph N/A   Clear
3:55 PM 91.4 °F - 39.2 °F 16% 29.94 in 10.0 mi SSW 9.2 mph - N/A   Clear
4:15 PM 93.2 °F - 37.4 °F 14% 29.93 in 10.0 mi SW 11.5 mph - N/A   Clear
4:35 PM 93.2 °F - 33.8 °F 12% 29.92 in 10.0 mi SSW 9.2 mph 18.4 mph N/A   Clear
4:55 PM 93.2 °F - 37.4 °F 14% 29.92 in 10.0 mi SE 12.7 mph 16.1 mph N/A   Clear
5:15 PM 93.2 °F - 37.4 °F 14% 29.92 in 10.0 mi SW 10.4 mph 17.3 mph N/A   Clear
5:55 PM 93.2 °F - 35.6 °F 13% 29.90 in 10.0 mi South 10.4 mph - N/A   Clear
6:15 PM 91.4 °F - 35.6 °F 14% 29.90 in 10.0 mi SW 9.2 mph - N/A   Clear
6:35 PM 91.4 °F - 35.6 °F 14% 29.89 in 10.0 mi SSE 13.8 mph 17.3 mph N/A   Clear
6:55 PM 91.4 °F - 39.2 °F 16% 29.89 in 10.0 mi South 13.8 mph 18.4 mph N/A   Clear
7:15 PM 89.6 °F - 37.4 °F 16% 29.89 in 10.0 mi South 11.5 mph - N/A   Clear
7:35 PM 86.0 °F - 37.4 °F 18% 29.89 in 10.0 mi South 8.1 mph - N/A   Clear
7:55 PM 82.4 °F - 35.6 °F 19% 29.89 in 10.0 mi South 6.9 mph - N/A   Clear
8:15 PM 78.8 °F - 35.6 °F 21% 29.90 in 10.0 mi South 8.1 mph - N/A   Clear
8:35 PM 77.0 °F - 35.6 °F 22% 29.90 in 10.0 mi SSE 8.1 mph - N/A   Clear
8:55 PM 75.2 °F - 35.6 °F 24% 29.90 in 10.0 mi SSE 6.9 mph - N/A   Clear
9:15 PM 75.2 °F - 33.8 °F 22% 29.90 in 10.0 mi SSE 9.2 mph - N/A   Clear
9:35 PM 75.2 °F - 32.0 °F 21% 29.91 in 10.0 mi SSE 6.9 mph - N/A   Clear
10:15 PM 77.0 °F - 32.0 °F 19% 29.91 in 10.0 mi SSE 10.4 mph - N/A   Clear
10:35 PM 77.0 °F - 30.2 °F 18% 29.91 in 10.0 mi SSE 10.4 mph - N/A   Clear
10:55 PM 75.2 °F - 30.2 °F 19% 29.91 in 10.0 mi SSE 9.2 mph - N/A   Clear
11:15 PM 75.2 °F - 30.2 °F 19% 29.91 in 10.0 mi SSE 9.2 mph - N/A   Clear
11:55 PM 73.4 °F - 30.2 °F 20% 29.91 in 10.0 mi SSE 8.1 mph - N/A   Clear